"Pseudo-MPEC" for P21vXoQ

Created 2022 Aug 15 4:22:19 UT using Find_Orb

Click here for an explanation of pseudo-MPECs

 
 Astrometry: 
     P21vXoQ* C2022 08 08FpIRf!BFa2q6Cs(UyEsEs,u$T\8m^=ej)g,gm8^J(\AstrometryF52
     P21vXoQ  C2022 08 08Cd7vc0v]qaJSSqp8h5\LViRx6D6:r]j/ZT?0k\'R`5,X_xFtZr+#F52
     P21vXoQ  C2022 08 08$)redacted;nHclick?.N8F?here!ZMAjWqJ=,0Okbv@wH%M.Hu'F52
     P21vXoQ  C2022 08 081$sWwu7J'BMRFj9Wtfor^?JXr]qyk?OM*SFaPART7explanationF52

Station data:
(F52) Pan-STARRS 2, Haleakala  (N20.707382 W156.255910)  US/Hawaii.
   Observers J. Bulger, T. Dukes, T. Lowe, A. Schultz, M. Willman. Measurers
   K. Chambers, S. Chastel, T. de Boer, L. Denneau, J. Fairlamb, H.
   Flewelling, M. Huber, C.-C. Lin, E. Magnier, Y. Ramanjooloo, R. Wainscoat,
   R. Weryk. 1.8-m Ritchey-Chrétien + CCD.

Orbital elements:  P21vXoQ
   Perihelion 2022 Jun 30.51696 +/- 62.2 TT = 12:24:25 (JD 2459761.01696)
Epoch 2022 Aug  9.0 TT = JDT 2459800.5   Earth MOID: 0.2960   Ma: 0.0271
M  11.35680965 +/- 70               (J2000 ecliptic)          AutoNEOCP
n   0.28763765 +/- 0.545            Peri.   22.68096 +/- 80
a   2.27285756 +/- 2.87             Node   297.22622 +/- 70
e   0.4251650 +/- 0.258             Incl.    5.99086 +/- 60
P   3.43                   H 20.1   G  0.15   U 12.3  SR
q 1.30651803 +/- 0.53    Q 3.23919709 +/- 19.4
From 4 observations 2022 Aug. 8 (54.9 min); mean residual 0".07
Residuals in arcseconds: 
220808 F52  .04-  .02-    220808 F52  .03-  .14+    
220808 F52  .07+  .04-    220808 F52  .00   .08-    

Ephemerides (geocentric):
Date (UTC) HH   RA             Dec           delta  r     elong  mag " sig PA
---- --------  ------------   ------------  ------ ------ -----  --- --------
2022 08 15 04  02 20 40.569   +23 43 13.64  .76070 1.3796 101.2 21.9  52d  15
2022 08 15 05  02 20 44.881   +23 43 53.16  .76062 1.3797 101.2 21.9  52d  15
2022 08 15 06  02 20 49.188   +23 44 32.65  .76053 1.3798 101.2 21.9  52d  15
2022 08 15 07  02 20 53.492   +23 45 12.11  .76045 1.3799 101.2 21.9  52d  15
2022 08 15 08  02 20 57.792   +23 45 51.55  .76036 1.3801 101.3 21.9  53d  15
2022 08 15 09  02 21 02.089   +23 46 30.96  .76027 1.3802 101.3 21.9  53d  15
2022 08 15 10  02 21 06.381   +23 47 10.34  .76019 1.3803 101.3 21.9  53d  15
2022 08 15 11  02 21 10.670   +23 47 49.69  .76010 1.3805 101.3 21.9  53d  15
2022 08 15 12  02 21 14.955   +23 48 29.02  .76001 1.3806 101.3 21.9  53d  15
2022 08 15 13  02 21 19.236   +23 49 08.32  .75993 1.3807 101.4 21.9  53d  15
2022 08 15 14  02 21 23.514   +23 49 47.59  .75984 1.3808 101.4 21.9  53d  15
2022 08 15 15  02 21 27.788   +23 50 26.84  .75976 1.3810 101.4 21.9  53d  15
2022 08 15 16  02 21 32.058   +23 51 06.06  .75967 1.3811 101.4 21.9  53d  15
2022 08 15 17  02 21 36.324   +23 51 45.25  .75958 1.3812 101.4 21.9  54d  15
2022 08 15 18  02 21 40.586   +23 52 24.42  .75950 1.3814 101.5 21.9  54d  15
2022 08 15 19  02 21 44.845   +23 53 03.55  .75941 1.3815 101.5 21.9  54d  15
2022 08 15 20  02 21 49.100   +23 53 42.66  .75932 1.3816 101.5 21.9  54d  15
2022 08 15 21  02 21 53.351   +23 54 21.74  .75924 1.3817 101.5 21.9  54d  15
2022 08 15 22  02 21 57.598   +23 55 00.80  .75915 1.3819 101.5 21.9  54d  15
2022 08 15 23  02 22 01.841   +23 55 39.83  .75907 1.3820 101.6 21.9  54d  15
2022 08 16 00  02 22 06.081   +23 56 18.83  .75898 1.3821 101.6 21.9  54d  15
2022 08 16 01  02 22 10.317   +23 56 57.80  .75889 1.3823 101.6 21.9  54d  15
2022 08 16 02  02 22 14.549   +23 57 36.75  .75881 1.3824 101.6 21.9  54d  15
2022 08 16 03  02 22 18.777   +23 58 15.67  .75872 1.3825 101.6 21.9  54d  15
2022 08 16 04  02 22 23.001   +23 58 54.56  .75864 1.3826 101.7 21.9  54d  15
2022 08 16 05  02 22 27.222   +23 59 33.43  .75855 1.3828 101.7 21.9  54d  15
2022 08 16 06  02 22 31.438   +24 00 12.26  .75846 1.3829 101.7 21.9  54d  15
2022 08 16 07  02 22 35.651   +24 00 51.07  .75838 1.3830 101.7 21.9  54d  15
2022 08 16 08  02 22 39.860   +24 01 29.86  .75829 1.3832 101.7 21.9  54d  15
2022 08 16 09  02 22 44.065   +24 02 08.61  .75820 1.3833 101.8 21.9  54d  15
2022 08 16 10  02 22 48.267   +24 02 47.34  .75812 1.3834 101.8 21.9  55d  15
2022 08 16 11  02 22 52.464   +24 03 26.04  .75803 1.3835 101.8 21.9  55d  15
2022 08 16 12  02 22 56.658   +24 04 04.72  .75795 1.3837 101.8 21.9  55d  15
2022 08 16 13  02 23 00.848   +24 04 43.36  .75786 1.3838 101.9 21.9  55d  15
2022 08 16 14  02 23 05.034   +24 05 21.98  .75777 1.3839 101.9 21.9  55d  15
2022 08 16 15  02 23 09.216   +24 06 00.58  .75769 1.3841 101.9 21.9  55d  15
2022 08 16 16  02 23 13.394   +24 06 39.14  .75760 1.3842 101.9 21.9  55d  15
2022 08 16 17  02 23 17.568   +24 07 17.68  .75751 1.3843 101.9 21.9  55d  15
2022 08 16 18  02 23 21.738   +24 07 56.19  .75743 1.3845 102.0 21.9  56d  15
2022 08 16 19  02 23 25.905   +24 08 34.67  .75734 1.3846 102.0 21.9  56d  15
2022 08 16 20  02 23 30.068   +24 09 13.13  .75726 1.3847 102.0 21.9  56d  15
2022 08 16 21  02 23 34.226   +24 09 51.56  .75717 1.3849 102.0 21.9  56d  15
2022 08 16 22  02 23 38.381   +24 10 29.96  .75708 1.3850 102.0 21.9  56d  15
2022 08 16 23  02 23 42.532   +24 11 08.33  .75700 1.3851 102.1 21.9  56d  15
2022 08 17 00  02 23 46.679   +24 11 46.68  .75691 1.3852 102.1 21.9  56d  15
2022 08 17 01  02 23 50.822   +24 12 25.00  .75682 1.3854 102.1 21.9  57d  15
2022 08 17 02  02 23 54.962   +24 13 03.29  .75674 1.3855 102.1 21.9  57d  15
2022 08 17 03  02 23 59.097   +24 13 41.55  .75665 1.3856 102.1 21.9  57d  15